Time,TemperatureF,DewpointF,PressureIn,WindDirection,WindDirectionDegrees,WindSpeedMPH,WindSpeedGustMPH,Humidity,HourlyPrecipIn,Conditions,Clouds,dailyrainin,SoftwareType,DateUTC
2013-08-24 00:09:00,71.6,67.0,30.04,East,99,0.0,1.0,86,0.00,,,0.00,weatherlink.com 1.10,2013-08-24 04:09:00,
2013-08-24 00:24:00,71.6,67.0,30.05,East,94,0.0,5.0,84,0.00,,,0.00,weatherlink.com 1.10,2013-08-24 04:24:00,
2013-08-24 00:39:00,71.3,67.0,30.05,ENE,73,0.0,3.0,85,0.00,,,0.00,weatherlink.com 1.10,2013-08-24 04:39:00,
2013-08-24 00:54:00,70.8,67.0,30.05,WNW,288,0.0,4.0,86,0.00,,,0.00,weatherlink.com 1.10,2013-08-24 04:54:00,
2013-08-24 01:09:00,70.3,66.0,30.05,ENE,62,0.0,4.0,86,0.00,,,0.00,weatherlink.com 1.10,2013-08-24 05:09:00,
2013-08-24 01:24:00,69.8,66.0,30.05,NNE,17,0.0,1.0,87,0.00,,,0.00,weatherlink.com 1.10,2013-08-24 05:24:00,
2013-08-24 01:39:00,69.3,65.0,30.05,NE,55,0.0,5.0,87,0.00,,,0.00,weatherlink.com 1.10,2013-08-24 05:39:00,
2013-08-24 01:54:00,68.9,65.0,30.06,East,79,0.0,5.0,87,0.00,,,0.00,weatherlink.com 1.10,2013-08-24 05:54:00,
2013-08-24 02:09:00,68.4,64.0,30.05,NE,51,0.0,3.0,86,0.00,,,0.00,weatherlink.com 1.10,2013-08-24 06:09:00,
2013-08-24 02:25:00,67.9,64.0,30.05,NE,36,2.0,4.0,86,0.00,,,0.00,weatherlink.com 1.10,2013-08-24 06:25:00,
2013-08-24 02:40:00,67.3,63.0,30.06,East,98,0.0,6.0,85,0.00,,,0.00,weatherlink.com 1.10,2013-08-24 06:40:00,
2013-08-24 02:55:00,66.9,62.0,30.06,NE,55,2.0,3.0,85,0.00,,,0.00,weatherlink.com 1.10,2013-08-24 06:55:00,
2013-08-24 03:10:00,66.4,62.0,30.06,ENE,66,0.0,2.0,84,0.00,,,0.00,weatherlink.com 1.10,2013-08-24 07:10:00,
2013-08-24 03:25:00,66.1,62.0,30.07,WNW,286,0.0,6.0,85,0.00,,,0.00,weatherlink.com 1.10,2013-08-24 07:25:00,
2013-08-24 03:40:00,65.8,62.0,30.07,NW,325,1.0,2.0,86,0.00,,,0.00,weatherlink.com 1.10,2013-08-24 07:40:00,
2013-08-24 03:55:00,65.6,61.0,30.08,NE,56,0.0,2.0,86,0.00,,,0.00,weatherlink.com 1.10,2013-08-24 07:55:00,
2013-08-24 04:10:00,65.8,62.0,30.08,SE,126,0.0,3.0,87,0.00,,,0.00,weatherlink.com 1.10,2013-08-24 08:10:00,
2013-08-24 04:25:00,65.6,62.0,30.08,NE,53,1.0,5.0,88,0.00,,,0.00,weatherlink.com 1.10,2013-08-24 08:25:00,
2013-08-24 04:40:00,65.6,62.0,30.09,ENE,72,0.0,1.0,88,0.00,,,0.00,weatherlink.com 1.10,2013-08-24 08:40:00,
2013-08-24 04:55:00,65.6,62.0,30.10,NNW,344,3.0,8.0,88,0.00,,,0.00,weatherlink.com 1.10,2013-08-24 08:55:00,
2013-08-24 05:10:00,65.6,62.0,30.10,NNE,19,0.0,2.0,88,0.00,,,0.00,weatherlink.com 1.10,2013-08-24 09:10:00,
2013-08-24 05:25:00,65.6,62.0,30.11,NW,315,0.0,3.0,88,0.00,,,0.00,weatherlink.com 1.10,2013-08-24 09:25:00,
2013-08-24 05:40:00,65.6,62.0,30.11,East,96,0.0,2.0,88,0.00,,,0.00,weatherlink.com 1.10,2013-08-24 09:40:00,
2013-08-24 05:55:00,65.5,62.0,30.11,North,5,0.0,0.0,88,0.00,,,0.00,weatherlink.com 1.10,2013-08-24 09:55:00,
2013-08-24 06:10:00,65.6,62.0,30.12,North,5,0.0,0.0,89,0.00,,,0.00,weatherlink.com 1.10,2013-08-24 10:10:00,
2013-08-24 06:25:00,65.6,62.0,30.12,NE,55,0.0,4.0,88,0.00,,,0.00,weatherlink.com 1.10,2013-08-24 10:25:00,
2013-08-24 06:40:00,65.5,62.0,30.13,West,261,3.0,8.0,88,0.00,,,0.00,weatherlink.com 1.10,2013-08-24 10:40:00,
2013-08-24 06:55:00,65.5,62.0,30.13,NNE,17,0.0,4.0,88,0.00,,,0.00,weatherlink.com 1.10,2013-08-24 10:55:00,
2013-08-24 07:10:00,65.3,62.0,30.14,ENE,73,0.0,2.0,88,0.00,,,0.00,weatherlink.com 1.10,2013-08-24 11:10:00,
2013-08-24 07:25:00,65.3,62.0,30.15,East,88,0.0,1.0,88,0.00,,,0.00,weatherlink.com 1.10,2013-08-24 11:25:00,
2013-08-24 07:40:00,65.3,62.0,30.16,NE,34,0.0,3.0,89,0.00,,,0.00,weatherlink.com 1.10,2013-08-24 11:40:00,
2013-08-24 07:55:00,65.3,62.0,30.17,ESE,103,0.0,3.0,89,0.00,,,0.00,weatherlink.com 1.10,2013-08-24 11:55:00,
2013-08-24 08:10:00,65.6,62.0,30.17,East,80,0.0,3.0,88,0.00,,,0.00,weatherlink.com 1.10,2013-08-24 12:10:00,
2013-08-24 08:25:00,66.0,62.0,30.17,WSW,238,0.0,1.0,87,0.00,,,0.00,weatherlink.com 1.10,2013-08-24 12:25:00,
2013-08-24 08:40:00,66.4,62.0,30.18,ENE,73,0.0,6.0,85,0.00,,,0.00,weatherlink.com 1.10,2013-08-24 12:40:00,
2013-08-24 08:55:00,67.1,62.0,30.18,ENE,66,0.0,3.0,84,0.00,,,0.00,weatherlink.com 1.10,2013-08-24 12:55:00,
2013-08-24 09:10:00,67.8,63.0,30.18,SE,135,1.0,4.0,83,0.00,,,0.00,weatherlink.com 1.10,2013-08-24 13:10:00,
2013-08-24 09:25:00,68.6,62.0,30.18,North,9,0.0,5.0,79,0.00,,,0.00,weatherlink.com 1.10,2013-08-24 13:25:00,
2013-08-24 09:40:00,69.9,62.0,30.19,NE,43,0.0,6.0,77,0.00,,,0.00,weatherlink.com 1.10,2013-08-24 13:40:00,
2013-08-24 09:55:00,70.3,62.0,30.19,NE,46,2.0,5.0,76,0.00,,,0.00,weatherlink.com 1.10,2013-08-24 13:55:00,
2013-08-24 10:10:00,70.9,63.0,30.19,ESE,117,0.0,7.0,75,0.00,,,0.00,weatherlink.com 1.10,2013-08-24 14:10:00,
2013-08-24 10:25:00,71.6,63.0,30.19,East,88,0.0,4.0,74,0.00,,,0.00,weatherlink.com 1.10,2013-08-24 14:25:00,
2013-08-24 10:40:00,72.0,63.0,30.20,ENE,57,0.0,6.0,72,0.00,,,0.00,weatherlink.com 1.10,2013-08-24 14:40:00,
2013-08-24 10:55:00,72.8,63.0,30.20,ENE,71,0.0,5.0,72,0.00,,,0.00,weatherlink.com 1.10,2013-08-24 14:55:00,
2013-08-24 11:10:00,73.5,63.0,30.20,ENE,76,0.0,4.0,70,0.00,,,0.00,weatherlink.com 1.10,2013-08-24 15:10:00,
2013-08-24 11:25:00,74.0,64.0,30.20,East,96,0.0,2.0,70,0.00,,,0.00,weatherlink.com 1.10,2013-08-24 15:25:00,
2013-08-24 11:40:00,74.6,62.0,30.20,East,87,0.0,4.0,66,0.00,,,0.00,weatherlink.com 1.10,2013-08-24 15:40:00,
2013-08-24 11:55:00,75.6,63.0,30.20,East,93,0.0,4.0,66,0.00,,,0.00,weatherlink.com 1.10,2013-08-24 15:55:00,
2013-08-24 12:10:00,76.0,63.0,30.20,NE,45,0.0,3.0,65,0.00,,,0.00,weatherlink.com 1.10,2013-08-24 16:10:00,
2013-08-24 12:25:00,76.3,62.0,30.20,ENE,59,0.0,4.0,62,0.00,,,0.00,weatherlink.com 1.10,2013-08-24 16:25:00,
2013-08-24 12:40:00,76.3,62.0,30.20,ESE,117,0.0,6.0,62,0.00,,,0.00,weatherlink.com 1.10,2013-08-24 16:40:00,
2013-08-24 12:55:00,77.0,61.0,30.19,NNE,13,2.0,4.0,59,0.00,,,0.00,weatherlink.com 1.10,2013-08-24 16:55:00,
2013-08-24 13:10:00,77.4,60.0,30.19,NE,43,0.0,6.0,56,0.00,,,0.00,weatherlink.com 1.10,2013-08-24 17:10:00,
2013-08-24 13:26:00,79.2,62.0,30.19,ESE,107,0.0,4.0,56,0.00,,,0.00,weatherlink.com 1.10,2013-08-24 17:26:00,
2013-08-24 13:41:00,79.6,60.0,30.19,East,88,1.0,7.0,52,0.00,,,0.00,weatherlink.com 1.10,2013-08-24 17:41:00,
2013-08-24 13:56:00,79.8,61.0,30.19,North,5,0.0,5.0,52,0.00,,,0.00,weatherlink.com 1.10,2013-08-24 17:56:00,
2013-08-24 14:11:00,80.5,61.0,30.19,West,275,1.0,3.0,51,0.00,,,0.00,weatherlink.com 1.10,2013-08-24 18:11:00,
2013-08-24 14:26:00,80.9,58.0,30.19,NE,37,1.0,7.0,46,0.00,,,0.00,weatherlink.com 1.10,2013-08-24 18:26:00,
2013-08-24 14:41:00,81.1,59.0,30.19,ESE,103,0.0,5.0,47,0.00,,,0.00,weatherlink.com 1.10,2013-08-24 18:41:00,
2013-08-24 14:56:00,80.7,59.0,30.19,West,259,0.0,3.0,48,0.00,,,0.00,weatherlink.com 1.10,2013-08-24 18:56:00,
2013-08-24 15:11:00,81.2,59.0,30.19,NNW,331,2.0,7.0,47,0.00,,,0.00,weatherlink.com 1.10,2013-08-24 19:11:00,
2013-08-24 15:26:00,81.1,59.0,30.19,East,80,0.0,4.0,47,0.00,,,0.00,weatherlink.com 1.10,2013-08-24 19:26:00,
2013-08-24 15:41:00,81.1,60.0,30.19,East,98,0.0,2.0,48,0.00,,,0.00,weatherlink.com 1.10,2013-08-24 19:41:00,
2013-08-24 15:56:00,81.1,60.0,30.18,ENE,61,2.0,7.0,48,0.00,,,0.00,weatherlink.com 1.10,2013-08-24 19:56:00,
2013-08-24 16:11:00,80.3,57.0,30.18,East,80,0.0,4.0,45,0.00,,,0.00,weatherlink.com 1.10,2013-08-24 20:11:00,
2013-08-24 16:26:00,80.5,57.0,30.18,NW,315,0.0,5.0,45,0.00,,,0.00,weatherlink.com 1.10,2013-08-24 20:26:00,
2013-08-24 16:41:00,80.3,58.0,30.18,NW,317,2.0,3.0,46,0.00,,,0.00,weatherlink.com 1.10,2013-08-24 20:41:00,
2013-08-24 16:56:00,80.5,59.0,30.19,ESE,113,0.0,2.0,48,0.00,,,0.00,weatherlink.com 1.10,2013-08-24 20:56:00,
2013-08-24 17:11:00,79.9,58.0,30.18,West,273,0.0,3.0,47,0.00,,,0.00,weatherlink.com 1.10,2013-08-24 21:11:00,
2013-08-24 17:26:00,79.4,59.0,30.19,ESE,111,0.0,4.0,50,0.00,,,0.00,weatherlink.com 1.10,2013-08-24 21:26:00,
2013-08-24 17:41:00,79.0,59.0,30.19,ENE,73,0.0,1.0,51,0.00,,,0.00,weatherlink.com 1.10,2013-08-24 21:41:00,
2013-08-24 17:56:00,79.2,59.0,30.19,ESE,104,1.0,2.0,50,0.00,,,0.00,weatherlink.com 1.10,2013-08-24 21:56:00,
2013-08-24 18:11:00,78.5,59.0,30.18,ESE,109,0.0,1.0,52,0.00,,,0.00,weatherlink.com 1.10,2013-08-24 22:11:00,
2013-08-24 18:26:00,78.1,59.0,30.18,ESE,102,0.0,3.0,53,0.00,,,0.00,weatherlink.com 1.10,2013-08-24 22:26:00,
2013-08-24 18:41:00,77.7,59.0,30.18,East,94,0.0,2.0,52,0.00,,,0.00,weatherlink.com 1.10,2013-08-24 22:41:00,
2013-08-24 18:56:00,77.0,58.0,30.19,SE,132,0.0,2.0,53,0.00,,,0.00,weatherlink.com 1.10,2013-08-24 22:56:00,
2013-08-24 19:11:00,76.3,59.0,30.19,SE,132,0.0,0.0,55,0.00,,,0.00,weatherlink.com 1.10,2013-08-24 23:11:00,
2013-08-24 19:26:00,75.4,59.0,30.19,SE,132,0.0,0.0,58,0.00,,,0.00,weatherlink.com 1.10,2013-08-24 23:26:00,
2013-08-24 19:41:00,74.7,60.0,30.19,SE,132,0.0,0.0,61,0.00,,,0.00,weatherlink.com 1.10,2013-08-24 23:41:00,
2013-08-24 19:56:00,73.7,61.0,30.19,SE,132,0.0,0.0,64,0.00,,,0.00,weatherlink.com 1.10,2013-08-24 23:56:00,
2013-08-24 20:11:00,72.7,61.0,30.20,SE,132,0.0,0.0,66,0.00,,,0.00,weatherlink.com 1.10,2013-08-25 00:11:00,
2013-08-24 20:26:00,71.8,61.0,30.20,SE,132,0.0,0.0,68,0.00,,,0.00,weatherlink.com 1.10,2013-08-25 00:26:00,
2013-08-24 20:41:00,70.6,61.0,30.21,SE,132,0.0,0.0,71,0.00,,,0.00,weatherlink.com 1.10,2013-08-25 00:41:00,
2013-08-24 20:56:00,69.6,61.0,30.21,SE,132,0.0,0.0,74,0.00,,,0.00,weatherlink.com 1.10,2013-08-25 00:56:00,
2013-08-24 21:11:00,68.8,61.0,30.22,SE,132,0.0,0.0,76,0.00,,,0.00,weatherlink.com 1.10,2013-08-25 01:11:00,
2013-08-24 21:26:00,67.9,61.0,30.23,SE,132,0.0,0.0,78,0.00,,,0.00,weatherlink.com 1.10,2013-08-25 01:26:00,
2013-08-24 21:41:00,67.3,61.0,30.23,SE,132,0.0,0.0,80,0.00,,,0.00,weatherlink.com 1.10,2013-08-25 01:41:00,
2013-08-24 21:56:00,66.9,61.0,30.23,SE,132,0.0,0.0,81,0.00,,,0.00,weatherlink.com 1.10,2013-08-25 01:56:00,
2013-08-24 22:11:00,66.6,61.0,30.23,SE,132,0.0,0.0,82,0.00,,,0.00,weatherlink.com 1.10,2013-08-25 02:11:00,
2013-08-24 22:26:00,66.1,61.0,30.24,SE,132,0.0,0.0,83,0.00,,,0.00,weatherlink.com 1.10,2013-08-25 02:26:00,
2013-08-24 22:41:00,65.8,61.0,30.24,SE,132,0.0,0.0,85,0.00,,,0.00,weatherlink.com 1.10,2013-08-25 02:41:00,
2013-08-24 22:56:00,65.3,61.0,30.24,SE,132,0.0,0.0,86,0.00,,,0.00,weatherlink.com 1.10,2013-08-25 02:56:00,
2013-08-24 23:11:00,65.2,61.0,30.24,SE,132,0.0,0.0,87,0.00,,,0.00,weatherlink.com 1.10,2013-08-25 03:11:00,
2013-08-24 23:26:00,64.8,61.0,30.25,SE,132,0.0,0.0,87,0.00,,,0.00,weatherlink.com 1.10,2013-08-25 03:26:00,
2013-08-24 23:41:00,64.7,61.0,30.26,SE,132,0.0,0.0,87,0.00,,,0.00,weatherlink.com 1.10,2013-08-25 03:41:00,
2013-08-24 23:56:00,64.7,61.0,30.26,SE,132,0.0,0.0,88,0.00,,,0.00,weatherlink.com 1.10,2013-08-25 03:56:00,